Location: Heiligenberg
(48.5381°N, 7.3897°E)
Time: 23:35:43
(UTC+00:00)

Cosmos 1455 Rocket - Pass Details

Date: 26 May 2022
Orbit: 604 x 629 km, 82.5° (Epoch: 02 July)

Event Time Altitude Azimuth Distance (km) Brightness Sun altitude
Rises 00:17:12 0° 355° (N) 2,933 7.9 -19.5°
Reaches altitude 10° 00:19:33 10° 2° (N) 2,020 6.9 -19.4°
Maximum altitude 00:23:50 44° 75° (ENE) 873 4.0 -19.2°
Enters shadow 00:26:16 23° 136° (SE) 1,350 4.5 -19.1°
